Home   Weather   Wood Buffalo   Past weeks

Flag for Canada Past Weather in Wood Buffalo, Alberta, Canada — Yesterday and Last 2 Weeks

Now
14 °F

Sunny.


Feels Like: 6 °F
Forecast: 22 / 30 °F
Wind: 5 mph from Southeast

Location: Fort Mcmurray

Current Time: Dec 14, 2017 at 10:20:57 am

Latest Report: Dec 14, 2017 at 9:00 am


Visibility: 9 mi

Pressure: 30.19 "Hg

Humidity: 100%

Dew Point: 14 °F

Location of Wood BuffaloLocation

Past Weather in Wood Buffalo — Graph

°F

Wood Buffalo Temperature Yesterday

Maximum temperature yesterday: 36 °F (at 12:00 pm)
Minimum temperature yesterday: 25 °F (at 12:00 am)
Average temperature yesterday: 30 °F

High & Low Weather Summary for the Past Weeks

 TemperatureHumidityPressure
High41 °F (Dec 7, 2:00 pm)100% (Dec 1, 9:30 pm)30.56 "Hg (Dec 1, 9:30 pm)
Low-20 °F (Dec 4, 8:00 am)52% (Dec 7, 1:00 pm)29.64 "Hg (Dec 1, 12:00 am)
Average24 °F84%30.01 "Hg
* Reported Nov 29 9:03 am — Dec 14 9:00 am, Wood Buffalo. Weather by CustomWeather, © 2017

Note: Actual official high and low records may vary slightly from our data, if they occured in-between our weather recording intervals... More about our weather records

Advertising

Wood Buffalo Weather History for the Previous 24 Hours

Scroll right to see more
 ConditionsComfort  
Time TempWeatherWind HumidityBarometerVisibility
9:00 am
Thu, Dec 14
14 °FSunny.5 mph100%30.19 "Hg9 mi
8:00 am16 °FClear.2 mph93%30.21 "Hg9 mi
7:00 am16 °FClear.2 mph100%30.23 "Hg9 mi
6:00 am18 °FPassing clouds.7 mph93%30.25 "Hg9 mi
5:00 am18 °FClear.6 mph93%30.27 "Hg9 mi
4:17 am21 °FPassing clouds.7 mph93%30.28 "Hg9 mi
4:00 am23 °FLow clouds.6 mph93%30.28 "Hg9 mi
3:00 am23 °FOvercast.6 mph93%30.29 "Hg9 mi
2:00 am21 °FOvercast.6 mph100%30.29 "Hg9 mi
1:00 am25 °FPassing clouds.6 mph93%30.30 "Hg9 mi
12:53 am23 °FPartly cloudy.5 mph93%30.30 "Hg9 mi
12:00 am27 °FPassing clouds.6 mph86%30.30 "Hg9 mi
11:31 pm
Wed, Dec 13
28 °FMostly cloudy.8 mph86%30.30 "Hg9 mi
11:17 pm28 °FMostly cloudy.6 mph86%30.30 "Hg9 mi
11:00 pm28 °FOvercast.6 mph86%30.29 "Hg9 mi
10:00 pm28 °FPassing clouds.6 mph86%30.29 "Hg9 mi
9:00 pm28 °FOvercast.7 mph86%30.28 "Hg9 mi
8:00 pm25 °FPassing clouds.8 mph93%30.28 "Hg9 mi
7:00 pm28 °FPassing clouds.8 mph86%30.28 "Hg9 mi
6:00 pm27 °FClear.8 mph93%30.27 "Hg8 mi
5:00 pm28 °FClear.6 mph100%30.26 "Hg9 mi
4:36 pm30 °FPassing clouds.7 mph93%30.25 "Hg9 mi
4:00 pm32 °FMostly cloudy.7 mph87%30.24 "Hg9 mi
3:00 pm32 °FOvercast.10 mph87%30.21 "Hg9 mi
2:00 pm36 °FOvercast.14 mph75%30.16 "Hg9 mi
1:49 pm36 °FOvercast.17 mph75%30.14 "Hg9 mi
1:00 pm36 °FOvercast.14 mph75%30.11 "Hg9 mi
12:00 pm36 °FOvercast.10 mph75%30.09 "Hg9 mi
11:00 am34 °FSunny.12 mph75%30.06 "Hg9 mi
10:00 am34 °FSunny.10 mph70%30.02 "Hg9 mi
Weather by CustomWeather, © 2017

See weather overview